Weather reports worldwide

Advertisment
Fair Isle, United Kingdom (3008): temperature & dewpoint: 18.05.2017 20:00:00 - 24.05.2017 20:00:00 (BST)Fair Isle, United Kingdom (3008): temperature 5cm: 18.05.2017 20:00:00 - 24.05.2017 20:00:00 (BST)Fair Isle, United Kingdom (3008): temperature -20cm & temperature -100cm: 18.05.2017 20:00:00 - 24.05.2017 20:00:00 (BST)Fair Isle, United Kingdom (3008): wind speed & gusts: 18.05.2017 20:00:00 - 24.05.2017 20:00:00 (BST)Fair Isle, United Kingdom (3008): wind direction: 18.05.2017 20:00:00 - 24.05.2017 20:00:00 (BST)Fair Isle, United Kingdom (3008): reduced air pressure: 18.05.2017 20:00:00 - 24.05.2017 20:00:00 (BST)Fair Isle, United Kingdom (3008): visibility: 18.05.2017 20:00:00 - 24.05.2017 20:00:00 (BST)Fair Isle, United Kingdom (3008): precipitation: 18.05.2017 20:00:00 - 24.05.2017 20:00:00 (BST)
Date & Time tt [°C] td [°C] tt 5cm [°C] tt -20cm [°C] tt -100cm [°C] ff [km/h] ff [kn] fx [km/h] fx [kn] dd ppp [hPa] vv [km] rr [mm]
24.05.2017 20:00:00 10,7 10,7 - - - 22 12 - - SW 1021,2 10 0,0
24.05.2017 19:00:00 10,8 10,8 - - - 29 16 - - SW 1021,0 0,4 0,0
24.05.2017 18:00:00 11,0 10,9 - - - 24 13 - - WSW 1020,8 0,2 0,0
24.05.2017 17:00:00 10,8 10,5 - - - 18 10 - - SW 1021,0 0,3 0,0
24.05.2017 16:00:00 10,9 10,6 - - - 11 6 - - SW 1021,1 25 0,0
24.05.2017 15:00:00 11,1 10,7 - - - 15 8 - - SW 1021,3 30 0,0
24.05.2017 14:00:00 10,8 10,6 - - - 15 8 - - SW 1021,1 40 0,0
24.05.2017 13:00:00 10,4 10,2 - - - 11 6 - - WSW 1020,8 16 0,0
24.05.2017 12:00:00 10,3 10,2 - - - 11 6 - - WSW 1020,6 11 0,0
24.05.2017 11:00:00 10,3 10,2 - - - 9 5 - - W 1020,1 35 0,0
24.05.2017 10:00:00 10,3 10,3 10,3 10,7 8,9 8 4 - - W 1019,8 0,2 0,0
24.05.2017 09:00:00 9,9 9,9 - - - 5 3 - - WSW 1019,4 0,3 0,0
24.05.2017 08:00:00 9,3 9,3 - - - 8 4 - - W 1019,0 0,3 0,2
24.05.2017 07:00:00 9,3 9,2 - - - 9 5 - - WSW 1018,6 0,4 0,0
24.05.2017 06:00:00 9,3 9,2 - - - 9 5 - - WSW 1018,0 0,3 0,2
24.05.2017 05:00:00 9,2 9,1 - - - 11 6 - - W 1017,8 0,5 0,4
24.05.2017 04:00:00 9,2 8,9 - - - 16 9 - - WSW 1017,7 0,4 0,2
24.05.2017 03:00:00 9,5 9,2 - - - 21 11 - - WSW 1017,5 6 0,0
24.05.2017 02:00:00 9,6 9,3 - - - 15 8 - - WSW 1017,2 10 0,0
24.05.2017 01:00:00 9,5 9,1 - - - 11 6 - - W 1017,0 9 0,0
24.05.2017 00:00:00 9,3 8,9 - - - 13 7 - - W 1016,8 9 0,0
23.05.2017 23:00:00 9,5 9,0 - - - 15 8 - - W 1016,8 10 0,0
23.05.2017 22:00:00 9,6 9,0 - - - 15 8 - - WSW 1016,5 9 0,0
23.05.2017 21:00:00 9,9 9,1 - - - 16 9 - - WSW 1016,2 9 0,0
23.05.2017 20:00:00 10,0 9,0 - - - 22 12 - - WSW 1015,6 10 0,0
23.05.2017 19:00:00 10,5 8,9 - - - 24 13 - - WSW 1015,4 12 0,0
23.05.2017 18:00:00 11,2 9,9 - - - 21 11 - - WSW 1015,2 13 0,0
23.05.2017 17:00:00 11,5 9,8 - - - 24 13 - - WSW 1014,8 23 0,0
23.05.2017 16:00:00 11,6 10,2 - - - 22 12 - - W 1014,4 15 0,0
23.05.2017 15:00:00 11,4 9,9 - - - 21 11 - - WSW 1014,3 11 0,0
23.05.2017 14:00:00 11,3 10,1 - - - 21 11 - - W 1014,0 12 0,0
23.05.2017 13:00:00 11,3 10,2 - - - 28 15 - - W 1013,4 13 0,0
23.05.2017 12:00:00 10,9 9,9 - - - 28 15 - - W 1012,9 16 0,0
23.05.2017 11:00:00 10,7 10,0 - - - 24 13 - - W 1012,3 12 0,0
23.05.2017 10:00:00 10,2 9,6 - 10,4 8,7 21 11 - - W 1011,8 11 0,0
23.05.2017 09:00:00 9,7 9,1 - - - 24 13 - - W 1011,1 14 0,0
23.05.2017 08:00:00 9,5 9,3 - - - 24 13 - - W 1010,5 12 0,0
23.05.2017 07:00:00 9,3 9,3 - - - 24 13 - - W 1010,0 14 0,2
23.05.2017 06:00:00 8,9 8,9 - - - 18 10 - - WNW 1009,2 14 0,2
23.05.2017 05:00:00 8,9 8,8 - - - 16 9 - - WNW 1008,9 7 1,4
23.05.2017 04:00:00 9,3 9,2 - - - 9 5 - - SSE 1008,9 2,9 1,2
23.05.2017 03:00:00 9,2 9,1 - - - 11 6 - - SE 1008,6 4,5 1,0
23.05.2017 02:00:00 9,4 9,2 - - - 24 13 - - SSE 1008,8 4,3 2,4
23.05.2017 01:00:00 9,5 9,2 - - - 26 14 - - SSE 1009,0 3,7 1,6
23.05.2017 00:00:00 9,7 9,2 - - - 24 13 - - SE 1009,1 11 0,6
22.05.2017 23:00:00 9,7 9,2 - - - 21 11 - - SE 1009,3 9 0,0
22.05.2017 22:00:00 9,6 9,2 - - - 21 11 - - SE 1009,8 9 0,0
22.05.2017 21:00:00 9,7 9,3 - - - 22 12 - - SE 1010,2 9 0,0
22.05.2017 20:00:00 9,7 9,2 - - - 29 16 - - SE 1010,4 9 0,0
22.05.2017 19:00:00 9,8 9,1 - - - 22 12 - - SE 1010,7 10 0,0
22.05.2017 18:00:00 10,1 9,0 - - - 26 14 - - SE 1011,4 12 0,0
22.05.2017 17:00:00 10,1 9,2 - - - 22 12 - - SE 1011,9 13 0,0
22.05.2017 16:00:00 10,7 9,5 - - - 29 16 - - SE 1012,8 10 0,0
22.05.2017 15:00:00 10,8 9,6 - - - 24 13 - - SE 1013,7 11 0,0
22.05.2017 14:00:00 10,8 9,5 - - - 29 16 - - SE 1014,4 14 0,0
22.05.2017 13:00:00 10,7 9,3 - - - 22 12 - - ESE 1014,3 13 0,0
22.05.2017 12:00:00 11,2 9,9 - - - 18 10 - - SE 1014,7 12 0,0
22.05.2017 11:00:00 10,9 10,0 - - - 18 10 - - SE 1015,2 18 0,0
22.05.2017 10:00:00 10,5 9,6 - 10,0 8,7 18 10 - - ESE 1015,5 10 0,0
22.05.2017 09:00:00 9,9 9,4 - - - 15 8 - - SE 1015,7 11 0,0
22.05.2017 08:00:00 9,8 9,2 - - - 15 8 - - SE 1015,9 12 0,0
22.05.2017 07:00:00 9,8 9,4 - - - 13 7 - - SE 1016,2 13 0,0
22.05.2017 06:00:00 9,4 9,0 - - - 18 10 - - SE 1016,4 15 0,0
22.05.2017 05:00:00 9,2 8,9 - - - 16 9 - - SE 1016,7 14 0,0
22.05.2017 04:00:00 9,1 8,9 - - - 11 6 - - ESE 1016,9 11 0,0
22.05.2017 03:00:00 9,2 9,0 - - - 11 6 - - SE 1017,3 13 0,0
22.05.2017 02:00:00 9,3 9,0 - - - 15 8 - - ESE 1017,9 11 0,0
22.05.2017 01:00:00 9,3 8,9 - - - 11 6 - - ESE 1018,4 13 0,0
22.05.2017 00:00:00 9,2 8,8 - - - 15 8 - - SE 1018,8 16 0,0
21.05.2017 23:00:00 9,2 8,6 - - - 9 5 - - SE 1019,0 13 0,0
21.05.2017 22:00:00 9,4 8,7 - - - 13 7 - - SE 1018,9 15 0,0
21.05.2017 21:00:00 9,4 8,6 - - - 15 8 - - ESE 1018,7 24 0,0
21.05.2017 20:00:00 9,5 8,5 - - - 13 7 - - ESE 1019,0 30 0,0
21.05.2017 19:00:00 10,0 8,4 - - - 11 6 - - ESE 1019,0 45 0,0
21.05.2017 18:00:00 10,1 8,4 - - - 8 4 - - SE 1019,1 29 0,0
21.05.2017 17:00:00 10,6 8,3 - - - 13 7 - - SE 1019,3 40 0,0
21.05.2017 16:00:00 11,4 8,4 - - - 11 6 - - SSE 1019,3 45 0,0
21.05.2017 15:00:00 11,1 8,8 - - - 15 8 - - S 1019,3 40 0,0
21.05.2017 14:00:00 11,1 9,1 - - - 15 8 - - SSW 1019,1 30 0,0
21.05.2017 13:00:00 11,0 9,2 - - - 16 9 - - S 1018,7 40 0,0
21.05.2017 12:00:00 10,8 8,6 - - - 15 8 - - S 1018,4 21 0,0
21.05.2017 11:00:00 10,5 9,6 - - - 13 7 - - S 1018,0 30 0,0
21.05.2017 10:00:00 9,7 9,2 - 9,7 8,7 8 4 - - SSE 1017,7 14 0,0
21.05.2017 09:00:00 9,4 9,1 - - - 11 6 - - S 1017,1 21 0,0
21.05.2017 08:00:00 9,0 8,9 - - - 9 5 - - SE 1016,5 9 0,0
21.05.2017 07:00:00 8,9 8,8 - - - 8 4 - - SE 1016,2 7 0,0
21.05.2017 06:00:00 8,5 8,3 - - - 11 6 - - SSE 1016,0 9 0,0
21.05.2017 05:00:00 8,4 8,2 - - - 13 7 - - SSE 1015,7 8 0,0
21.05.2017 04:00:00 8,6 8,3 - - - 15 8 - - SE 1015,6 10 0,0
21.05.2017 03:00:00 8,6 8,3 - - - 16 9 - - SE 1015,3 11 0,0
21.05.2017 02:00:00 8,5 8,1 - - - 21 11 - - SE 1015,0 12 0,0
21.05.2017 01:00:00 8,6 8,1 - - - 26 14 - - SE 1014,9 12 0,0
21.05.2017 00:00:00 8,8 8,2 - - - 29 16 - - SE 1014,2 11 0,0
20.05.2017 23:00:00 8,5 7,3 - - - 29 16 50 27 SSE 1013,6 15 0,0
20.05.2017 22:00:00 8,5 7,2 - - - 34 18 50 27 SSE 1012,5 21 0,0
20.05.2017 21:00:00 8,9 7,4 - - - 37 20 55 30 SSE 1011,4 16 0,0
20.05.2017 20:00:00 9,1 8,0 - - - 44 24 61 33 SSE 1010,3 12 0,0
20.05.2017 19:00:00 9,4 8,4 - - - 44 24 65 35 SSE 1009,3 13 0,0
20.05.2017 18:00:00 9,4 9,0 - - - 41 22 59 32 SE 1008,2 13 0,2
20.05.2017 17:00:00 9,2 9,0 - - - 29 16 52 28 ESE 1007,9 12 0,0
20.05.2017 16:00:00 9,1 9,1 - - - 39 21 67 36 E 1007,6 0,8 0,0
20.05.2017 15:00:00 9,2 9,1 - - - 41 22 63 34 E 1008,0 10 0,0
20.05.2017 14:00:00 9,1 9,1 - - - 31 17 61 33 E 1007,9 10 0,8
20.05.2017 13:00:00 9,3 9,3 - - - 28 15 - - E 1008,5 5 0,2
20.05.2017 12:00:00 9,0 9,0 - - - 28 15 - - ENE 1009,1 4,5 1,2
20.05.2017 11:00:00 8,9 8,9 - - - 28 15 - - ENE 1009,5 4,3 3,6
20.05.2017 10:00:00 9,0 8,9 9,3 9,9 8,5 29 16 - - ENE 1009,7 1,2 3,8
20.05.2017 09:00:00 9,2 9,2 - - - 29 16 - - E 1010,0 6 4,6
20.05.2017 08:00:00 8,8 8,7 - - - 29 16 - - ENE 1010,2 4,5 1,8
20.05.2017 07:00:00 8,7 8,7 - - - 31 17 - - NE 1010,3 9 0,4
20.05.2017 06:00:00 8,6 8,5 - - - 28 15 - - NE 1010,2 4,7 0,4
20.05.2017 05:00:00 8,5 8,3 - - - 24 13 - - ENE 1010,8 5 0,4
20.05.2017 04:00:00 8,5 8,2 - - - 31 17 - - NE 1011,2 8 0,2
20.05.2017 03:00:00 8,5 8,0 - - - 26 14 - - NE 1012,0 9 0,0
20.05.2017 02:00:00 8,6 7,9 - - - 28 15 - - NE 1012,5 11 0,0
20.05.2017 01:00:00 8,7 7,8 - - - 28 15 - - NNE 1013,4 13 0,0
20.05.2017 00:00:00 8,6 7,8 - - - 31 17 - - NNE 1014,0 15 0,0
19.05.2017 23:00:00 8,6 8,1 - - - 34 18 - - NNE 1014,0 16 0,0
19.05.2017 22:00:00 8,4 8,0 - - - 29 16 - - NNE 1014,7 18 0,0
19.05.2017 21:00:00 8,3 8,0 - - - 22 12 - - NNE 1015,1 21 0,0
19.05.2017 20:00:00 8,3 8,1 - - - 22 12 - - NE 1015,0 14 0,4
19.05.2017 19:00:00 8,2 7,9 - - - 22 12 - - ENE 1015,3 11 0,2
19.05.2017 18:00:00 8,3 7,8 - - - 24 13 - - NE 1015,0 13 0,0
19.05.2017 17:00:00 8,6 7,8 - - - 22 12 - - ENE 1014,9 22 0,0
19.05.2017 16:00:00 9,0 8,1 - - - 26 14 - - ENE 1015,0 24 0,0
19.05.2017 15:00:00 8,8 7,9 - - - 24 13 - - ENE 1015,0 23 0,0
19.05.2017 14:00:00 8,8 8,0 - - - 22 12 - - E 1014,6 30 0,0
19.05.2017 13:00:00 8,5 8,1 - - - 21 11 - - E 1014,4 30 0,0
19.05.2017 12:00:00 8,1 7,8 - - - 16 9 - - E 1014,0 21 0,0
19.05.2017 11:00:00 7,9 7,7 - - - 18 10 - - E 1013,8 13 0,0
19.05.2017 10:00:00 7,7 7,6 7,7 10,0 8,4 22 12 - - E 1013,6 8 0,0
19.05.2017 09:00:00 7,7 7,7 - - - 21 11 - - E 1013,3 4,9 0,0
19.05.2017 08:00:00 7,1 7,1 - - - 22 12 - - E 1012,9 1,1 0,0
19.05.2017 07:00:00 7,3 7,3 - - - 21 11 - - ENE 1012,3 0,6 0,0
19.05.2017 06:00:00 7,0 7,0 - - - 16 9 - - E 1012,3 0,3 0,0
19.05.2017 05:00:00 7,2 7,2 - - - 15 8 - - E 1012,0 0,1 0,0
19.05.2017 04:00:00 7,3 7,2 - - - 16 9 - - E 1011,8 2,1 0,0
19.05.2017 03:00:00 7,6 7,5 - - - 15 8 - - E 1011,8 14 0,0
19.05.2017 02:00:00 7,3 7,2 - - - 15 8 - - E 1012,1 15 0,0
19.05.2017 01:00:00 7,0 6,9 - - - 16 9 - - E 1012,0 5 0,0
19.05.2017 00:00:00 7,0 7,0 - - - 13 7 - - E 1012,0 0,7 0,0
18.05.2017 23:00:00 6,6 6,5 - - - 11 6 - - ESE 1012,4 0,2 0,0
18.05.2017 22:00:00 6,5 6,3 - - - 13 7 - - ESE 1012,1 0,1 0,0
18.05.2017 21:00:00 7,4 7,0 - - - 15 8 - - ESE 1012,1 0,1 0,0
18.05.2017 20:00:00 9,3 8,1 - - - 13 7 - - E 1011,4 3,1 0,0

tt = temperature
td = dewpoint
tt 5cm = temperature 5cm
tt -20cm = temperature -20cm
tt -100cm = temperature -100cm
ff = wind speed
fx = gusts
dd = wind direction
ppp = reduced air pressure
vv = visibility
rr = precipitation

Next stations